Regional Weather Roundup
Issued by NWS

Home | Current Version | Previous Version | Graphics & Text | Print | Product List | Glossary On
Versions: 1 2 3 4 5 6 7 8 9 10 11 12 13 14 15 16 17 18 19 20 21 22 23 24 25 26 27 28 29 30 31 32 33 34 35 36 37 38 39 40 41 42 43 44 45 46 47 48 49 50
000
ASUS45 KCYS 300310
RWRWY

WYOMING REGIONAL WEATHER ROUNDUP
NATIONAL WEATHER SERVICE CHEYENNE WY
900 PM MDT TUE JUL 29 2014

NOTE:  "FAIR" INDICATES FEW OR NO CLOUDS BELOW 12,000 FEET
WITH NO SIGNIFICANT WEATHER AND/OR OBSTRUCTIONS TO VISIBILITY.

WYZ001-300400-
YELLOWSTONE NATIONAL PARK

CITY           SKY/WX    TMP DP  RH WIND       PRES   REMARKS
LK YELLOWSTONE   N/A     52  49  89 CALM      30.44R
W YELLOWSTONE  NOT AVBL

$$
WYZ002>013-054>058-071-098>099-300400-
NORTHERN WYOMING

CITY           SKY/WX    TMP DP  RH WIND       PRES   REMARKS
JACKSON        CLOUDY    61  55  82 N7        30.34R
CODY           NOT AVBL
GREYBULL       CLOUDY    69  54  58 S6        30.23R
WORLAND        CLOUDY    65  59  81 S8        30.25R
SHERIDAN       MOCLDY    64  51  62 S3        30.21S
BUFFALO          N/A     63  50  62 CALM      30.28S
GILLETTE       MOCLDY    63  56  78 SW3       30.25S
HULETT         FAIR      64  55  72 MISG      30.26
NEWCASTLE      FAIR      63  55  77 MISG      30.28

$$
WYZ014>020-022>026-101>103-300400-
CENTRAL WYOMING

CITY           SKY/WX    TMP DP  RH WIND       PRES   REMARKS
BIG PINEY      LGT RAIN  58  55  90 N3        30.37R
PINEDALE       CLOUDY    55  48  76 CALM      30.36S
DUBOIS         FAIR      54  46  76 S7        30.39S
LANDER         LGT RAIN  59  57  93 CALM      30.31S
RIVERTON       CLOUDY    60  57  89 W5        30.33S
CASPER         LGT RAIN  57  53  86 E12       30.31F
DOUGLAS        CLOUDY    59  57  93 MISG      30.31F

$$
WYZ021-027>030-104>119-300400-
SOUTHERN WYOMING

CITY           SKY/WX    TMP DP  RH WIND       PRES   REMARKS
EVANSTON       CLOUDY    59  54  83 E10       30.31R
KEMMERER       LGT RAIN  54  52  94 E18       30.36R
FORT BRIDGER   CLOUDY    59  57  92 E6        30.36R
ROCK SPRINGS   CLOUDY    57  53  86 E17       30.33S
DIXON          RAIN      60  57  89 CALM      30.31S
RAWLINS        CLOUDY    56  54  93 NE13      30.34S
SARATOGA       CLOUDY    59  55  88 CALM      30.34R
LARAMIE        LGT RAIN  54  53  97 N7        30.36R
CHEYENNE       RAIN      56  55  97 N13       30.32R FOG
TORRINGTON     LGT RAIN  62  61  96 NW7       30.25R
PINE BLUFFS    RAIN      59  59 100 NE9       30.29R

$$



USA.gov is the U.S. government's official web portal to all federal, state and local government web resources and services.